Terminal Aerodrome Forecast
Issued by NWS

Home | Current Version | Previous Version | Text Only | Print | Product List | Glossary On
Versions: 1 2 3 4 5 6 7 8 9 10 11 12 13 14 15 16 17 18 19 20 21 22 23 24 25 26 27 28 29 30 31 32 33 34 35
148
FTUS45 KPSR 310903 AAA
TAFPHX
TAF AMD
KPHX 310903Z 3109/0106 24008KT P6SM FEW120 SCT250
     FM311100 12007KT P6SM FEW070 BKN150
     FM311800 25007KT P6SM FEW120 SCT250=

USA.gov is the U.S. government's official web portal to all federal, state and local government web resources and services.